GEFSCGP_850_meantemp_180.txt.gz
Temperature
4 3 3 3 3 4 3 3 2 3 4 4 3 4 4 5 4 4 4 4 5 5 5 5 5 5 6 6 6 6 6 7 7 7 7 8 8 9 9 9 9 9 10 10
3 3 4 4 4 3 3 2 2 3 4 4 2 3 3 4 4 4 4 4 5 5 5 5 5 5 5 6 6 6 6 6 6 6 7 7 8 8 8 9 9 9 9 9
4 4 5 4 4 3 3 2 2 3 3 2 2 2 3 4 4 4 4 4 4 5 5 5 5 5 5 5 5 5 6 6 6 6 6 7 7 7 8 8 8 9 9 9
3 3 4 4 4 3 3 4 3 3 1 1 1 1 2 3 2 3 3 4 4 5 4 4 4 4 4 5 5 5 5 5 5 6 6 6 6 7 7 8 8 8 8 9
3 4 4 4 4 4 3 3 2 2 1 -1 0 -0 2 2 2 3 3 4 4 5 4 4 4 4 4 4 4 4 5 5 5 5 6 6 6 6 7 7 7 8 8 8
3 3 3 4 4 4 3 2 1 -0 -1 -0 0 -0 1 1 2 2 2 4 4 4 4 4 4 4 4 4 4 4 4 5 5 5 5 6 6 6 6 7 7 7 7 8
3 3 3 3 3 3 2 1 1 1 -1 0 1 0 1 2 2 2 2 3 4 4 4 4 4 4 4 4 4 4 4 4 4 5 5 5 6 6 6 6 6 7 7 7
2 3 3 3 3 2 2 1 1 1 0 0 0 0 1 2 2 3 3 3 4 4 4 4 4 4 3 3 3 3 3 4 4 4 5 5 5 6 6 6 6 6 7 7
1 2 3 2 2 2 1 1 1 -1 -2 -2 -1 -1 0 2 2 2 2 3 3 4 4 4 4 3 3 3 3 3 3 3 3 4 4 5 5 5 6 6 6 6 7 7
1 1 1 1 2 2 1 -0 -1 -1 -1 -0 -1 -1 1 1 2 2 1 2 3 4 4 3 3 3 3 3 3 3 3 3 3 3 4 4 5 5 5 5 6 6 6 7
1 0 0 0 1 1 0 -0 -1 -1 -1 -1 -1 1 1 1 1 1 1 2 3 3 3 3 3 3 3 3 3 2 2 3 3 3 3 4 4 4 5 5 5 6 6 6
-0 -1 -1 -0 0 0 0 -1 -1 -1 -2 -3 -2 1 3 1 1 1 1 3 3 3 3 3 3 3 3 3 2 2 2 2 2 3 3 4 4 4 4 5 5 5 6 6
-0 -1 0 1 0 -1 -1 -2 -2 -2 -2 -2 -2 1 2 1 1 2 2 3 3 3 3 3 3 3 2 2 2 2 2 2 2 2 3 3 3 4 4 4 5 5 6 6
1 -1 0 2 2 -1 -2 -2 -2 -2 -2 -2 -1 1 2 2 2 2 2 2 3 2 3 2 2 2 2 2 2 2 2 2 2 2 2 2 3 3 4 4 5 5 5 6
1 -0 -1 -0 1 -0 -0 -0 -1 -2 -1 -1 0 0 2 2 1 1 2 2 2 2 2 2 2 2 2 1 1 1 1 1 2 2 2 2 3 3 3 4 4 5 5 5
-0 -0 -1 -1 0 -0 0 1 0 -0 -0 -1 -0 1 2 2 1 1 1 2 1 2 2 2 2 1 1 1 1 1 1 1 1 2 2 2 3 3 3 4 4 5 5 5
-1 -1 -1 -1 -1 -1 -0 0 0 -0 -1 -1 -0 1 1 0 0 1 1 1 1 2 2 2 1 1 1 1 1 1 1 1 1 1 2 2 2 3 3 4 4 4 5 5
-1 -1 -1 -1 -2 -1 1 0 -0 -0 -0 -1 -0 0 0 0 1 2 2 2 2 2 2 1 1 1 1 1 0 0 0 1 1 1 1 1 2 2 3 3 4 4 4 4
-1 -1 -1 -1 -2 -1 -0 0 -1 -1 -1 -1 -1 -0 -0 1 -0 1 3 2 2 2 1 1 1 1 0 0 0 0 0 0 0 1 1 1 1 2 2 3 3 3 4 4
-2 -1 -1 -2 -2 -1 1 1 -0 -1 -1 -0 -1 -1 -1 -1 -2 0 2 2 2 1 1 1 0 0 0 0 -0 -0 -0 0 0 0 0 1 1 1 2 2 3 3 3 4
-2 -2 -1 -1 -1 -1 0 -0 -0 -0 0 1 1 0 -0 -1 0 2 2 1 1 1 1 0 0 -0 -0 -0 -0 -1 -0 -0 -0 0 0 1 1 1 2 2 2 2 3 3
-2 -3 -3 -2 -2 -0 0 -1 -1 0 2 2 2 2 1 1 2 1 1 1 1 0 0 -0 -0 -0 -1 -1 -1 -1 -1 -1 -0 -0 0 0 1 1 1 2 2 2 3 3
-2 -2 -2 -2 0 1 0 1 2 2 1 2 2 2 1 1 1 1 0 0 0 -0 -0 -0 -1 -1 -1 -1 -1 -1 -1 -1 -1 -1 -0 0 1 1 1 1 2 2 2 2
-3 -3 -3 -3 -2 -1 0 1 1 1 1 2 1 1 1 0 0 0 -0 -0 -0 -0 -1 -1 -1 -1 -1 -1 -1 -2 -2 -2 -1 -1 -1 -0 0 1 1 1 1 1 1 2
-2 -4 -3 -3 -2 -2 -0 1 1 1 1 1 1 0 0 -0 -0 -1 -1 -1 -1 -1 -1 -2 -2 -2 -2 -2 -2 -2 -2 -2 -2 -1 -1 -1 -0 -0 0 1 1 1 1 1
-3 -3 -3 -1 -1 -2 -1 2 1 1 1 0 0 -0 -0 -1 -1 -1 -1 -1 -1 -2 -2 -2 -2 -2 -2 -2 -2 -2 -2 -2 -2 -2 -2 -2 -1 -1 -0 0 1 1 1 2

GEFSCGP_850_meantemp_186.txt.gz
Temperature
7 10 10 10 9 9 8 9 9 10 9 8 9 10 11 10 10 9 9 9 8 7 7 6 6 6 6 6 5 5 5 5 5 5 6 6 6 7 7 7 7 8 8 8
9 9 9 8 7 7 8 8 9 10 8 8 8 9 10 10 9 9 9 8 8 7 7 6 6 6 5 5 5 5 5 5 5 5 5 5 6 6 6 6 7 7 7 8
9 9 7 7 7 7 8 8 9 8 8 8 7 10 11 10 9 8 8 8 7 7 7 6 6 5 5 5 5 5 5 5 5 5 5 5 5 5 5 6 6 7 7 7
8 7 6 7 7 7 8 8 7 7 7 9 7 10 12 10 10 9 9 8 8 7 6 6 5 5 5 5 5 5 5 4 4 4 4 5 5 5 5 6 6 7 7 7
8 6 6 7 7 7 8 6 6 6 6 6 7 6 11 10 9 10 10 8 7 6 6 6 5 5 5 5 4 4 4 4 4 4 4 4 4 5 5 5 5 6 6 6
7 6 6 7 6 6 6 6 6 5 6 6 7 7 11 11 10 10 9 8 7 6 6 5 5 5 5 5 4 4 4 4 4 4 4 4 4 4 4 5 5 5 6 6
7 6 6 5 6 6 6 7 8 8 8 9 7 6 9 11 9 9 8 7 7 6 5 5 5 5 4 4 4 4 4 4 4 4 4 4 4 4 4 4 5 5 5 5
8 9 6 5 6 7 6 7 8 9 10 10 7 7 10 9 8 7 7 6 6 6 5 5 5 4 4 4 4 3 3 3 3 3 3 3 3 4 4 4 4 5 5 5
8 8 5 5 5 6 6 6 6 6 5 5 9 8 9 9 8 8 7 6 6 6 5 5 5 4 4 4 3 3 3 3 3 3 3 3 3 3 3 4 4 4 5 5
6 6 5 4 4 4 5 5 5 6 6 8 9 9 10 9 9 9 8 7 6 5 5 5 4 4 4 3 3 3 3 3 3 3 3 3 3 3 3 3 4 4 4 4
5 5 5 4 4 5 4 4 5 6 5 7 8 10 10 8 9 8 8 7 6 5 5 4 4 4 3 3 3 3 3 3 3 3 2 2 2 2 3 3 3 4 4 4
4 5 6 5 4 4 4 5 5 5 5 4 6 9 9 8 8 7 7 6 6 5 4 4 4 3 3 3 3 2 2 2 2 2 2 2 2 2 2 3 3 3 3 4
3 3 5 6 4 2 2 3 3 4 4 5 5 8 9 7 7 6 6 6 5 5 4 4 4 3 3 3 2 2 2 2 2 2 2 2 2 2 2 2 3 3 3 3
4 3 5 8 7 4 2 2 2 2 3 5 5 7 8 8 7 7 6 5 5 4 4 3 3 3 3 2 2 2 2 2 2 1 1 1 1 1 2 2 2 2 3 3
3 3 3 5 5 4 4 3 2 2 4 4 6 6 7 8 7 6 5 5 4 4 3 3 3 2 2 2 2 2 1 1 1 1 1 1 1 1 1 1 2 2 3 3
2 3 3 3 4 3 3 4 4 3 3 4 4 5 7 7 6 5 5 4 4 3 3 2 2 2 2 2 1 1 1 1 1 1 1 1 1 1 1 1 2 2 2 3
2 2 2 4 4 3 3 5 4 4 4 4 4 6 6 6 5 5 4 3 3 2 2 2 2 1 1 1 1 1 1 0 0 0 0 0 0 1 1 1 2 2 2 2
1 2 2 3 2 3 6 5 5 4 4 4 4 5 5 5 4 3 3 3 3 2 2 1 1 1 1 1 1 0 0 0 0 -0 -0 -0 -0 0 1 1 2 2 2 2
2 2 2 2 3 4 6 4 3 3 3 4 3 4 4 4 3 4 3 3 2 2 1 1 1 0 0 0 0 -0 -0 -0 -0 -0 -0 -0 -0 -0 0 1 1 1 2 2
0 1 2 2 2 4 6 4 3 3 3 5 4 4 4 3 3 5 3 2 2 1 1 0 0 -0 -0 -0 -0 -1 -1 -1 -1 -1 -1 -1 -0 -0 0 1 1 1 1 2
-0 0 1 2 2 4 5 2 2 3 5 5 3 3 3 3 3 3 2 1 1 1 0 0 -0 -0 -1 -1 -1 -1 -1 -1 -1 -1 -1 -1 -0 -0 0 0 1 1 1 1
1 1 1 2 2 3 4 2 3 5 4 3 3 2 2 2 2 1 1 1 0 0 -0 -0 -1 -1 -1 -1 -1 -2 -2 -2 -1 -1 -1 -1 -1 -0 0 0 0 1 1 1
2 3 3 3 4 5 3 3 3 2 2 2 2 2 1 1 1 0 0 0 -0 -0 -1 -1 -1 -1 -1 -1 -2 -2 -2 -2 -2 -2 -2 -1 -1 -1 -0 -0 -0 0 0 0
2 1 1 1 3 3 2 2 2 2 1 1 1 1 0 0 -0 -0 -0 -1 -1 -1 -1 -1 -2 -2 -2 -2 -2 -2 -2 -3 -2 -2 -2 -2 -1 -1 -1 -1 -0 -0 -0 -0
2 0 1 1 3 2 2 1 2 2 1 1 0 0 -0 -1 -1 -1 -1 -1 -1 -2 -2 -2 -2 -2 -2 -2 -2 -3 -3 -3 -3 -3 -2 -2 -2 -2 -1 -1 -1 -1 -1 -0
1 1 1 3 3 3 3 2 2 1 1 0 -0 -1 -1 -1 -1 -2 -2 -2 -2 -2 -2 -3 -3 -3 -3 -3 -3 -3 -3 -3 -3 -3 -3 -3 -2 -2 -2 -2 -1 -0 -0 -0

GEFSCGP_850_meantemp_192.txt.gz
Temperature
11 11 10 10 11 11 11 11 11 13 12 11 10 11 12 13 13 13 13 13 12 12 11 10 9 9 8 8 8 7 7 7 6 6 6 6 6 6 6 6 6 6 7 7
11 10 11 11 11 11 11 10 11 12 12 11 10 10 11 12 12 13 13 13 12 11 10 10 9 8 8 8 7 7 7 6 6 6 5 5 5 5 5 5 6 6 6 6
11 10 11 11 10 10 10 10 10 10 10 10 9 9 12 12 13 13 12 12 12 11 10 9 9 8 8 7 7 7 6 6 6 5 5 5 5 5 5 5 5 5 5 6
11 10 10 10 10 10 9 10 9 9 8 7 9 7 11 12 11 11 12 12 11 11 10 9 8 8 7 7 7 6 6 6 5 5 5 5 4 4 4 5 5 5 5 5
10 10 9 9 10 10 9 9 9 8 7 6 8 6 8 12 11 11 11 11 11 10 9 9 8 8 7 7 6 6 6 5 5 5 5 4 4 4 4 4 4 4 4 5
9 9 9 9 9 9 9 8 8 8 7 5 8 7 8 11 11 11 10 11 10 10 9 9 8 7 7 6 6 6 5 5 5 5 4 4 4 4 4 4 4 4 4 4
9 9 9 8 8 8 8 7 7 7 6 7 10 8 8 12 12 11 10 10 10 9 9 8 8 7 7 6 6 6 5 5 5 4 4 4 4 4 4 4 3 3 3 4
9 8 8 8 8 7 7 7 7 7 8 9 9 8 10 12 12 11 11 10 10 9 9 8 7 7 6 6 6 5 5 5 4 4 4 4 4 3 3 3 3 3 3 3
9 8 8 8 8 8 7 7 8 6 6 5 7 10 11 11 11 10 10 10 9 9 8 8 7 7 6 6 6 5 5 4 4 4 4 4 3 3 3 3 3 3 3 3
8 8 7 7 7 6 7 7 6 5 6 6 8 10 9 10 10 10 9 9 9 9 8 8 7 7 6 6 5 5 4 4 4 3 3 3 3 3 3 3 3 3 3 3
7 6 6 5 5 5 5 5 6 6 6 6 6 8 11 10 10 9 8 9 9 8 8 7 7 6 6 5 5 4 4 4 3 3 3 3 3 3 3 3 3 3 2 2
6 6 5 6 6 6 5 6 5 5 5 5 5 6 10 9 9 9 9 9 9 8 8 7 6 6 5 5 5 4 4 3 3 3 3 3 3 3 2 2 2 2 2 2
5 4 5 5 4 4 4 4 4 4 4 4 5 6 9 8 8 9 9 9 8 8 7 6 6 5 5 4 4 4 3 3 3 2 2 2 2 2 2 2 2 2 2 2
5 3 4 6 6 3 3 3 3 3 3 3 5 6 8 8 8 8 8 8 7 7 6 6 5 5 4 4 4 3 3 3 2 2 2 2 2 1 1 1 1 1 1 1
4 3 3 5 6 5 4 3 3 3 3 3 5 6 7 7 7 7 8 7 7 6 6 5 5 4 4 3 3 3 3 2 2 2 2 1 1 1 1 1 1 1 1 1
3 3 3 4 5 5 5 4 4 3 3 4 4 5 7 7 7 7 7 6 6 5 5 5 4 3 3 3 2 2 2 2 2 1 1 1 1 1 1 1 1 1 1 1
2 2 2 3 4 4 3 5 5 4 4 4 4 5 6 6 6 6 6 6 5 5 5 4 3 3 2 2 2 2 1 1 1 1 1 1 0 0 0 1 1 0 0 0
2 2 2 3 3 2 5 6 6 5 5 5 4 4 5 5 6 6 6 5 5 5 4 3 3 2 2 1 1 1 1 1 1 1 0 0 -0 -0 0 1 0 0 -0 -0
2 2 2 2 2 3 5 6 5 4 4 5 4 5 5 5 5 5 6 5 5 4 3 3 2 2 1 1 1 0 0 0 0 -0 -0 -0 -0 -0 -0 0 0 -0 -0 -0
2 1 2 2 2 3 5 5 5 4 2 4 4 4 4 4 2 3 5 4 4 3 3 2 1 1 1 0 0 -0 -0 -0 -1 -1 -1 -1 -1 -1 -0 -0 -0 -0 -0 -0
1 1 1 1 2 3 5 4 4 3 3 5 5 5 4 3 3 4 4 3 3 2 2 1 1 0 0 -0 -1 -1 -1 -1 -1 -1 -1 -1 -1 -1 -1 -1 -1 -1 -1 -0
1 0 0 1 1 2 4 3 3 3 5 5 5 5 4 4 4 3 3 2 2 1 1 1 0 -0 -0 -1 -1 -1 -1 -1 -1 -2 -2 -1 -1 -1 -1 -1 -1 -1 -1 -1
2 2 2 2 3 4 4 4 4 5 4 4 4 4 4 3 3 2 2 1 1 1 0 0 -0 -1 -1 -1 -2 -2 -2 -2 -2 -2 -2 -2 -2 -2 -1 -1 -1 -1 -1 -1
2 3 2 2 3 4 5 5 4 4 4 4 3 3 3 2 2 2 1 1 0 0 -0 -0 -1 -1 -1 -2 -2 -2 -2 -2 -2 -2 -2 -2 -2 -2 -2 -2 -2 -2 -2 -2
2 2 1 1 2 3 4 4 4 4 3 3 3 2 2 1 1 1 0 0 -0 -1 -1 -1 -1 -2 -2 -2 -2 -3 -3 -3 -3 -3 -3 -3 -2 -2 -2 -2 -2 -2 -2 -2
2 1 1 1 2 2 2 3 3 3 2 2 2 1 1 1 0 -0 -1 -1 -1 -1 -2 -2 -2 -2 -3 -3 -3 -3 -3 -3 -4 -4 -3 -3 -3 -3 -3 -2 -2 -2 -2 -2

GEFSCGP_850_meantemp_198.txt.gz
Temperature
8 6 6 6 7 8 8 8 8 9 9 8 7 8 8 9 9 9 9 10 11 11 11 11 10 10 10 9 9 9 8 8 8 8 7 7 7 7 7 7 7 7 7 7
6 6 7 7 8 8 8 8 8 8 8 8 7 7 7 8 8 9 9 10 11 11 10 10 10 10 10 9 9 8 8 8 8 7 7 7 7 7 7 6 6 6 6 6
7 7 8 8 8 8 7 7 7 7 7 7 7 7 8 8 9 9 10 10 11 11 10 10 10 10 9 9 9 8 8 8 7 7 7 7 6 6 6 6 6 6 6 6
6 7 8 8 7 7 7 7 7 7 6 5 6 6 7 7 8 8 8 9 10 10 10 10 10 9 9 9 8 8 8 7 7 7 6 6 6 6 6 5 5 5 5 5
6 7 7 7 7 7 7 7 7 6 5 4 4 4 6 7 7 7 7 9 10 10 10 10 9 9 9 8 8 8 7 7 7 6 6 6 5 5 5 5 5 5 5 5
6 7 7 7 7 7 6 6 5 3 3 5 5 4 6 6 7 8 7 8 10 10 10 9 9 9 8 8 8 7 7 7 6 6 6 5 5 5 4 4 4 4 4 4
6 6 7 7 6 6 6 5 5 5 4 5 5 4 5 6 7 7 7 8 9 9 9 9 9 8 8 8 7 7 7 6 6 6 5 5 5 4 4 4 4 4 4 4
5 5 6 6 6 5 5 5 5 6 5 5 5 5 6 7 7 8 9 9 9 9 9 8 8 8 8 8 7 6 6 6 5 5 5 5 4 4 4 4 3 3 3 3
4 5 5 5 6 5 4 4 4 3 3 4 4 4 5 7 7 7 7 8 8 8 8 8 8 8 7 7 7 6 6 5 5 5 4 4 4 4 4 3 3 3 3 3
4 4 5 5 5 5 4 3 3 3 4 5 4 4 5 7 7 6 6 6 8 8 8 8 8 7 7 7 6 6 5 5 5 4 4 4 4 3 3 3 3 3 3 2
4 3 3 4 4 3 4 3 3 2 2 3 4 5 6 6 6 6 5 7 8 8 8 7 7 7 6 6 6 5 5 4 4 4 4 3 3 3 3 2 2 2 2 2
3 2 2 3 3 3 3 3 2 3 2 1 2 4 6 5 5 5 6 7 8 8 7 7 7 6 6 6 5 5 4 4 4 4 3 3 3 3 2 2 2 2 2 2
3 2 3 3 3 2 2 2 1 1 1 0 2 5 6 4 5 6 6 7 7 7 7 7 6 6 5 5 5 4 4 3 3 3 3 3 2 2 2 2 2 2 2 2
3 2 3 4 4 1 1 1 1 1 1 1 2 4 5 5 5 5 6 7 7 7 7 6 6 5 5 4 4 4 3 3 3 3 2 2 2 2 2 2 2 2 2 1
3 2 2 2 3 2 2 2 1 1 2 2 3 3 5 5 4 5 6 6 6 6 6 5 5 5 4 4 3 3 3 3 2 2 2 2 1 1 1 1 1 1 1 1
1 1 1 2 2 2 2 2 2 2 2 2 3 3 4 5 5 5 5 5 5 6 5 5 5 4 4 3 3 3 2 2 2 2 1 1 1 1 1 1 1 1 1 1
0 1 1 1 2 2 2 2 2 2 1 2 3 4 4 3 3 4 5 5 5 5 5 5 4 4 3 3 2 2 2 2 1 1 1 1 1 1 1 1 1 1 1 0
-0 0 0 1 1 2 3 3 3 3 2 2 2 3 3 3 4 5 5 5 5 5 4 4 4 3 3 2 2 2 1 1 1 0 0 0 0 0 0 0 0 0 0 -0
0 0 -0 0 0 1 2 3 2 2 2 2 2 3 3 4 3 4 5 5 5 4 4 4 3 3 2 2 1 1 1 1 0 0 -0 -0 -0 -0 -0 -0 -0 -0 -0 -1
0 -0 0 -0 1 1 3 3 3 3 2 2 2 2 2 2 1 2 5 4 4 4 3 3 3 2 2 1 1 0 0 0 -0 -0 -1 -1 -1 -1 -1 -1 -1 -1 -1 -1
0 -0 0 -0 0 1 2 2 3 3 3 3 3 3 3 1 2 4 4 4 3 3 3 2 2 1 1 1 0 -0 -0 -0 -1 -1 -1 -1 -1 -1 -1 -1 -1 -1 -1 -1
-0 -1 -1 -1 0 1 2 1 2 2 3 4 4 4 3 3 4 3 3 3 3 2 2 1 1 1 1 0 -0 -1 -1 -1 -1 -1 -1 -1 -1 -1 -2 -2 -1 -1 -2 -2
-1 -0 -0 0 1 2 2 2 3 3 3 3 3 3 3 3 3 3 2 2 2 1 1 1 0 0 0 -0 -1 -1 -1 -2 -2 -2 -2 -2 -2 -2 -2 -2 -2 -2 -2 -2
-1 -1 -1 -1 -0 1 2 3 3 3 3 3 3 3 3 2 2 2 1 1 1 1 0 0 -0 -0 -0 -1 -1 -2 -2 -2 -2 -2 -2 -2 -2 -2 -2 -2 -2 -2 -3 -3
-1 -1 -1 -1 -1 -0 1 2 3 2 2 2 2 2 2 2 1 1 1 0 0 0 -0 -1 -1 -1 -1 -1 -2 -2 -3 -3 -3 -3 -3 -3 -3 -3 -3 -2 -2 -3 -3 -3
-2 -1 -1 -0 -0 -0 1 2 2 2 2 2 1 1 1 1 0 0 -0 -0 -1 -1 -1 -1 -1 -2 -2 -2 -2 -3 -3 -3 -4 -4 -3 -3 -3 -3 -3 -3 -3 -3 -3 -3

GEFSCGP_850_meantemp_204.txt.gz
Temperature
7 5 6 6 6 7 7 7 7 7 7 7 6 6 7 7 7 7 8 9 10 10 11 10 10 10 10 10 10 9 9 9 9 8 8 8 8 8 8 8 8 7 7 7
5 6 6 6 6 7 7 7 7 7 7 7 5 5 6 6 6 7 8 8 9 10 10 10 10 10 10 10 9 9 9 9 8 8 8 8 8 8 8 7 7 7 7 7
6 6 6 6 6 6 6 6 7 7 6 6 5 7 7 7 6 7 8 9 10 10 10 10 10 10 10 9 9 9 9 8 8 8 8 7 7 7 7 7 7 7 6 6
5 6 6 6 6 6 6 6 6 6 6 5 5 6 7 7 6 6 7 8 9 10 10 10 10 10 9 9 9 9 8 8 8 7 7 7 7 7 7 6 6 6 6 6
5 5 6 6 6 6 5 5 5 5 5 4 4 5 6 6 7 7 6 8 9 10 10 10 10 10 10 9 9 8 8 8 7 7 7 7 6 6 6 6 6 6 6 5
5 5 6 6 5 5 4 4 3 3 3 5 4 5 6 5 7 7 7 8 9 9 9 9 10 9 9 9 8 8 8 8 7 7 7 6 6 6 6 5 5 5 5 5
5 5 5 5 5 5 5 4 4 5 4 5 4 4 5 6 6 6 6 7 8 9 9 9 9 9 9 8 8 8 7 7 7 7 6 6 6 5 5 5 5 4 4 4
4 4 4 4 5 4 4 5 5 6 5 5 3 3 5 5 5 6 6 7 8 9 9 9 9 9 8 8 8 7 7 7 7 6 6 6 5 5 5 4 4 4 4 4
4 4 4 4 4 4 4 3 4 2 2 4 4 3 4 5 5 5 6 6 7 8 9 9 8 8 8 8 7 7 7 6 6 6 5 5 5 5 4 4 4 4 4 3
3 3 3 3 4 3 3 2 2 3 4 6 5 4 5 6 6 5 5 5 7 8 8 8 8 8 8 7 7 7 6 6 6 5 5 5 5 4 4 4 4 4 3 3
3 2 2 3 3 3 2 2 2 2 2 4 5 6 5 5 5 5 4 6 7 7 8 8 8 7 7 7 6 6 6 6 5 5 5 5 4 4 4 4 3 3 3 3
2 2 1 2 2 2 2 2 2 3 2 1 2 4 6 4 4 4 4 6 7 7 7 7 7 7 7 6 6 6 6 5 5 5 4 4 4 4 3 3 3 3 3 2
2 2 2 3 2 1 1 1 1 1 0 -0 2 5 5 3 4 4 5 6 6 7 7 7 7 7 6 6 6 5 5 5 5 4 4 4 4 3 3 3 3 3 2 2
3 1 3 4 3 1 0 -0 -0 1 1 0 1 4 4 4 4 4 5 6 6 6 6 6 6 6 6 6 5 5 5 4 4 4 4 4 3 3 3 3 3 2 2 2
2 2 1 2 2 1 1 1 -0 1 1 2 2 2 4 4 3 4 5 5 5 6 6 6 6 5 5 5 5 4 4 4 4 3 3 3 3 3 2 2 2 2 2 2
1 1 1 1 1 1 2 1 1 1 2 1 2 2 3 4 4 4 4 4 4 5 5 5 5 5 5 5 4 4 4 3 3 3 3 2 2 2 2 2 2 2 1 1
-0 0 1 1 1 2 1 1 1 1 1 1 2 4 3 3 2 3 4 4 4 5 5 5 5 4 4 4 4 3 3 3 3 2 2 2 2 2 1 1 1 1 1 1
-0 0 0 0 1 1 3 2 2 2 2 1 2 2 2 3 3 4 4 4 5 5 4 4 4 4 4 4 3 3 3 2 2 2 2 2 1 1 1 0 1 1 0 0
-0 0 -0 -0 0 1 2 2 1 1 1 1 1 2 2 2 2 3 5 4 5 4 4 4 4 4 3 3 3 2 2 2 2 1 1 1 1 0 0 0 0 -0 -0 -0
-0 -0 -0 -1 1 1 3 2 1 2 2 2 1 1 1 1 1 2 4 4 4 4 4 3 3 3 3 2 2 2 1 1 1 1 1 0 0 -0 -0 -0 -0 -1 -1 -1
-0 -0 -0 -1 0 1 2 1 2 2 2 2 2 1 1 0 2 3 3 3 3 3 3 3 3 2 2 2 1 1 1 1 0 0 0 -0 -0 -1 -1 -1 -1 -1 -1 -1
-1 -1 -1 -1 -0 1 1 0 1 2 2 2 2 2 2 2 2 2 3 3 3 3 2 2 2 2 2 1 1 1 0 0 -0 -0 -0 -1 -1 -1 -1 -1 -1 -1 -2 -2
-1 -1 -1 -0 1 1 1 1 2 2 2 2 2 2 2 2 2 2 2 2 2 2 2 1 1 1 1 0 0 -0 -0 -0 -1 -1 -1 -1 -1 -1 -2 -2 -2 -2 -2 -3
-2 -2 -2 -2 -1 -0 0 1 2 2 2 2 2 2 2 2 2 1 1 1 1 1 1 1 1 0 0 -0 -0 -1 -1 -1 -1 -1 -2 -2 -2 -2 -2 -2 -2 -2 -3 -3
-2 -3 -2 -2 -2 -1 0 1 2 2 2 1 1 1 1 1 1 1 1 0 0 -0 -0 -0 -0 -0 -1 -1 -1 -1 -2 -2 -2 -2 -2 -2 -2 -2 -2 -2 -3 -3 -3 -4
-4 -3 -2 -1 -1 -1 -0 1 1 1 1 1 1 0 0 0 -0 -0 -0 -0 -1 -1 -1 -1 -1 -1 -1 -1 -2 -2 -2 -2 -3 -3 -3 -3 -3 -3 -3 -3 -3 -3 -3 -4

GEFSCGP_850_meantemp_210.txt.gz
Temperature
10 11 11 12 12 12 13 13 13 13 11 11 12 13 14 13 12 12 12 12 11 11 10 10 10 10 10 10 10 9 9 9 9 9 9 9 9 9 8 8 8 8 8 8
9 10 11 11 11 11 11 12 13 11 10 11 12 12 13 13 12 12 12 12 11 11 10 9 9 9 9 9 9 9 9 9 9 9 9 9 8 8 8 8 8 8 8 8
10 10 10 10 9 10 11 12 12 12 10 10 10 13 14 13 12 11 11 11 11 11 10 9 9 9 9 9 9 9 9 9 9 9 8 8 8 8 8 8 8 7 7 7
10 9 9 9 10 10 10 10 10 10 11 12 11 14 15 13 12 11 11 11 11 10 10 9 9 9 9 9 9 9 9 9 9 8 8 8 7 7 7 7 7 7 7 7
9 8 8 9 9 10 10 9 9 10 10 10 11 10 15 13 13 13 12 11 10 9 9 9 9 9 9 9 9 9 9 8 8 8 8 7 7 7 7 7 7 6 6 6
8 8 8 9 8 9 8 8 8 9 10 9 11 11 14 14 13 13 12 10 9 9 8 9 9 9 9 9 9 9 8 8 8 8 7 7 7 7 6 6 6 6 6 6
7 7 7 7 7 7 8 9 9 9 9 11 10 10 13 13 12 11 11 10 9 8 8 8 8 8 8 8 9 8 8 8 8 7 7 7 7 6 6 6 6 6 6 5
8 8 7 7 8 8 8 9 10 11 12 12 8 10 13 11 10 9 9 8 8 7 7 7 8 8 8 8 8 8 8 7 7 7 7 7 6 6 6 6 5 5 5 5
8 8 6 6 7 8 8 9 10 9 9 11 12 11 11 10 10 9 9 8 8 7 7 7 7 7 8 8 8 8 7 7 7 7 6 6 6 6 6 5 5 5 5 5
7 7 5 5 6 6 7 8 8 9 10 11 12 12 13 11 11 10 9 9 8 7 7 7 7 7 7 7 7 7 7 7 6 6 6 6 6 6 5 5 5 5 5 4
6 6 5 5 5 6 6 6 7 9 9 11 12 13 11 10 10 10 9 8 7 7 6 7 7 7 7 7 7 7 7 6 6 6 6 5 5 5 5 5 5 5 4 4
5 6 5 5 4 4 6 7 7 8 7 8 11 12 9 8 8 8 8 7 7 6 6 6 7 7 7 7 6 6 6 6 6 6 5 5 5 5 5 5 4 4 4 4
4 4 5 5 4 3 3 4 5 5 7 8 10 11 8 8 8 7 7 7 6 6 6 6 6 6 6 6 6 6 6 5 5 5 5 5 5 5 5 4 4 4 4 3
4 4 6 7 7 5 3 3 4 5 7 8 9 10 9 9 8 8 7 7 6 6 6 6 6 6 6 6 6 6 5 5 5 5 5 5 5 4 4 4 4 3 3 3
4 4 4 5 5 4 4 4 3 4 7 8 9 9 9 9 8 7 7 6 6 5 5 5 5 5 5 5 5 5 5 5 5 5 5 4 4 4 4 3 3 3 3 3
3 3 4 4 4 4 4 4 4 5 6 6 7 7 8 8 7 7 6 5 5 5 5 5 5 5 5 5 5 5 5 4 4 4 4 4 4 3 3 3 3 2 2 2
2 2 3 5 4 4 5 5 4 4 5 6 7 8 7 6 6 6 6 5 5 4 4 4 4 4 5 5 5 5 4 4 4 4 3 3 3 3 2 2 2 2 2 1
1 2 3 3 3 4 6 5 5 5 5 5 5 6 6 6 5 5 5 5 4 4 4 4 4 4 4 4 4 4 4 3 3 3 3 2 2 2 2 2 1 1 1 1
2 2 3 3 4 5 5 4 4 4 4 4 4 5 5 4 4 4 4 4 4 4 4 4 4 4 4 4 3 3 3 3 2 2 2 2 2 1 1 1 1 1 1 1
1 1 2 3 4 5 6 4 3 4 4 5 4 4 4 3 5 6 3 3 3 3 3 3 3 3 3 3 3 3 2 2 2 2 2 1 1 1 1 1 1 0 0 0
1 1 2 2 3 5 4 2 3 5 5 4 3 3 3 3 4 3 3 3 3 3 3 3 3 3 2 2 2 2 2 1 1 1 1 1 1 1 0 0 0 -0 -0 -0
2 2 2 2 3 4 2 2 3 4 3 2 2 2 2 2 2 2 2 2 2 2 2 2 2 2 2 1 1 1 1 1 1 1 1 0 0 -0 -0 -0 -1 -1 -1 -1
1 2 2 3 3 2 1 2 2 1 1 1 1 1 1 1 1 1 1 1 1 1 1 1 1 1 1 1 1 0 0 0 0 -0 -0 -0 -0 -1 -1 -1 -1 -1 -1 -2
0 0 1 1 2 1 0 0 1 1 1 1 1 1 1 0 0 0 1 1 1 1 1 0 0 0 0 -0 -0 -0 -0 -0 -1 -1 -1 -1 -1 -1 -1 -1 -2 -2 -2 -3
0 -0 0 1 1 0 0 -0 -0 0 0 0 0 0 0 0 0 0 -0 -0 -0 -0 -0 -0 -0 -0 -1 -1 -1 -1 -1 -1 -1 -1 -2 -2 -2 -2 -2 -2 -2 -2 -3 -3
-1 -1 0 1 1 1 0 -1 -0 -0 -0 -0 -0 -0 -0 -0 -0 -1 -1 -1 -1 -1 -1 -1 -1 -1 -1 -1 -1 -1 -2 -2 -2 -2 -2 -2 -3 -3 -3 -3 -3 -3 -3 -3

GEFSCGP_850_meantemp_216.txt.gz
Temperature
11 10 9 11 12 13 14 14 14 15 14 14 13 13 14 14 14 14 15 15 15 14 13 13 12 11 11 10 10 10 10 10 10 10 10 10 10 10 9 9 9 9 9 9
10 9 11 13 13 13 13 12 13 13 13 13 12 13 13 14 14 14 15 15 15 14 14 13 12 11 11 10 10 10 10 10 10 10 10 10 10 9 9 9 9 9 9 9
10 11 12 12 12 12 12 12 12 13 12 12 12 11 13 14 15 15 15 15 15 14 13 13 12 11 10 10 10 10 10 10 10 10 10 9 9 9 9 8 8 8 8 8
10 11 11 11 12 12 11 12 13 12 10 10 11 9 13 14 14 14 14 14 14 14 13 12 11 11 10 10 10 9 10 10 9 9 9 9 9 8 8 8 8 8 8 8
10 11 10 10 11 12 11 12 12 12 11 10 11 9 11 13 13 13 13 14 14 14 13 12 11 11 10 10 9 9 9 9 9 9 9 8 8 8 8 8 7 7 7 7
9 10 10 10 11 11 11 11 11 11 9 8 9 9 10 12 13 13 13 13 14 13 13 12 11 10 10 9 9 9 9 9 9 9 8 8 8 8 7 7 7 7 7 7
8 9 9 10 9 10 10 8 7 7 7 7 11 10 10 13 13 13 12 13 13 12 12 11 10 10 9 9 9 8 8 8 8 8 8 8 8 7 7 7 7 7 7 6
7 7 8 8 9 8 8 8 8 8 8 9 10 10 11 12 12 12 12 12 12 11 11 10 10 9 9 9 8 8 8 8 8 8 8 7 7 7 7 7 7 6 6 6
7 7 9 9 9 9 8 8 9 8 9 9 9 11 11 12 11 11 11 11 10 10 10 10 9 9 9 8 8 8 8 8 8 8 7 7 7 7 6 6 6 6 6 6
7 6 7 7 8 8 8 9 8 7 8 9 10 11 10 10 10 10 9 10 10 10 9 9 9 8 8 8 8 8 7 7 7 7 7 7 7 6 6 6 6 5 5 5
6 5 5 6 6 6 7 7 7 7 8 9 9 10 11 10 10 9 9 10 10 9 9 8 8 8 8 7 7 7 7 7 7 7 7 6 6 6 6 5 5 5 5 5
5 5 4 5 6 6 6 7 7 7 7 8 8 8 10 9 9 9 9 10 9 9 8 8 7 7 7 7 7 7 6 6 6 6 6 6 6 5 5 5 5 5 5 5
4 4 4 4 4 4 5 5 6 6 6 7 8 8 9 8 9 9 9 9 9 8 8 7 7 7 7 6 6 6 6 6 6 6 6 5 5 5 5 5 5 5 5 4
5 3 3 4 5 3 3 4 4 5 5 7 8 8 8 8 8 8 8 8 8 8 7 7 7 6 6 6 6 6 6 6 5 5 5 5 5 5 5 4 4 4 4 4
4 3 3 4 5 5 4 4 4 4 5 6 8 8 8 8 7 7 8 8 7 7 7 6 6 6 6 6 6 5 5 5 5 5 5 4 4 4 4 4 4 4 4 4
2 2 3 4 5 5 4 4 4 5 5 6 7 7 8 8 8 7 7 7 7 6 6 6 6 6 6 5 5 5 5 5 4 4 4 4 4 4 4 4 4 3 3 3
2 2 2 3 4 4 3 4 4 4 5 6 6 6 7 6 6 6 6 6 6 6 6 5 5 5 5 5 5 5 4 4 4 4 4 4 3 3 3 3 3 3 3 3
1 1 2 3 3 3 4 5 5 5 5 5 5 5 6 6 6 6 6 5 5 5 5 5 5 5 5 5 4 4 4 4 4 3 3 3 3 3 3 3 3 2 2 2
2 1 2 2 2 3 4 4 4 4 3 4 4 5 5 5 5 4 5 5 5 5 5 5 4 4 4 4 4 4 3 3 3 3 3 3 2 2 2 2 2 2 2 2
1 1 1 2 3 3 3 4 4 4 3 4 4 4 4 4 3 3 4 4 4 4 4 4 4 4 4 3 3 3 3 3 3 3 2 2 2 2 2 2 2 1 1 1
1 1 1 1 2 2 3 3 4 3 2 3 4 4 3 3 3 3 3 3 3 3 3 3 3 3 3 3 3 3 2 2 2 2 2 2 1 1 1 1 1 1 1 1
1 1 1 1 2 2 2 2 2 2 3 3 3 3 2 2 2 2 2 2 2 3 3 3 3 2 2 2 2 2 2 2 1 1 1 1 1 1 1 0 0 0 -0 0
1 1 1 1 1 1 2 2 2 2 2 2 2 2 2 2 1 1 1 1 1 2 2 2 2 1 1 1 1 1 1 1 1 1 1 0 0 -0 -0 -0 -0 -1 -1 -1
0 1 1 0 1 1 1 1 1 1 1 1 1 1 1 1 1 1 1 1 1 1 1 1 1 1 0 0 0 0 0 0 0 0 -0 -0 -1 -1 -1 -1 -1 -1 -1 -2
-0 -1 -1 -1 -1 0 0 0 0 0 1 1 1 1 0 0 0 0 -0 -0 -0 -0 -0 -0 -0 -0 -0 -0 -0 -0 -0 -0 -0 -1 -1 -1 -1 -2 -2 -2 -2 -2 -2 -2
-1 -2 -1 -1 -1 -1 -1 -1 -1 -0 -0 -0 -0 -0 -0 -0 -1 -1 -1 -1 -1 -1 -1 -1 -1 -1 -1 -1 -1 -1 -1 -1 -1 -1 -2 -2 -2 -2 -2 -2 -2 -2 -2 -3

GEFSCGP_850_meantemp_222.txt.gz
Temperature
8 7 7 8 8 9 9 9 9 10 10 10 9 10 10 11 11 10 11 12 12 13 13 13 13 12 12 12 11 11 11 11 11 11 11 11 11 10 10 10 10 10 10 10
6 6 7 8 9 9 9 9 9 9 10 10 9 9 10 10 10 11 11 12 12 13 13 12 12 12 12 12 11 11 11 11 11 11 11 10 10 10 10 10 10 10 9 9
6 7 8 9 8 8 8 8 8 9 10 10 9 9 9 9 10 11 12 12 13 13 13 12 12 12 12 12 11 11 11 11 10 10 10 10 10 10 9 9 9 9 9 9
6 7 8 8 8 8 8 9 9 9 8 7 8 7 8 9 9 9 10 11 12 12 13 12 12 12 12 12 11 11 11 10 10 10 10 10 10 9 9 9 9 9 9 9
6 7 8 8 8 8 8 9 9 8 7 7 7 7 7 8 8 9 9 11 12 12 12 12 12 12 12 11 11 11 10 10 10 10 10 9 9 9 9 9 9 8 8 8
6 7 7 8 8 9 8 8 7 6 6 6 6 6 7 7 9 9 9 10 11 11 12 12 12 12 11 11 11 10 10 10 10 9 9 9 9 9 8 8 8 8 8 8
5 6 7 8 7 8 7 7 6 5 5 5 6 6 7 8 8 9 9 10 11 11 11 11 11 11 11 11 10 10 10 10 9 9 9 9 8 8 8 8 8 8 8 8
4 4 6 6 7 6 6 6 5 5 5 5 6 6 7 7 8 9 9 10 10 10 11 11 11 11 11 10 10 10 9 9 9 9 8 8 8 8 8 8 7 7 7 7
3 4 5 6 6 6 6 6 6 5 5 5 5 6 7 7 7 7 8 8 8 9 10 10 10 10 10 10 10 10 9 9 9 8 8 8 8 7 7 7 7 7 7 6
3 3 4 5 6 6 6 5 5 5 5 6 6 6 6 7 7 7 6 7 8 8 9 9 9 9 9 10 9 9 9 9 8 8 8 7 7 7 7 7 6 6 6 6
3 2 3 4 4 4 5 5 5 4 4 5 6 6 7 7 7 6 6 7 8 8 8 9 9 9 9 9 9 8 8 8 8 8 7 7 7 6 6 6 6 6 6 6
2 1 1 2 3 4 4 4 4 4 4 4 4 6 7 5 5 5 5 6 7 7 8 8 8 8 8 8 8 8 8 8 7 7 7 7 6 6 6 6 6 5 5 5
2 1 1 2 3 3 3 3 3 3 3 3 4 6 6 5 5 5 5 6 6 7 7 7 7 7 7 7 7 7 7 7 7 6 6 6 6 5 5 5 5 5 5 5
2 1 1 2 2 2 2 2 3 3 3 3 4 5 5 5 4 4 5 5 6 6 7 7 7 7 7 7 7 6 6 6 6 6 6 5 5 5 5 5 4 4 4 4
1 0 1 2 2 2 2 2 2 3 3 4 4 4 5 4 4 4 4 5 5 5 6 6 6 6 6 6 6 6 6 6 5 5 5 5 5 4 4 4 4 4 4 4
-0 0 1 1 2 2 2 2 2 3 3 4 4 4 4 4 4 3 4 4 4 5 5 5 6 6 6 6 6 5 5 5 5 5 5 4 4 4 4 3 3 3 3 3
-1 -1 0 1 2 2 2 2 2 2 2 3 4 4 3 3 3 3 3 4 4 4 5 5 5 5 5 5 5 5 5 5 4 4 4 4 3 3 3 3 3 3 3 3
-1 -1 -1 -0 1 1 2 2 2 2 2 2 2 3 3 3 3 3 3 3 4 4 4 5 5 5 5 5 5 4 4 4 4 4 3 3 3 3 3 3 3 3 2 2
-1 -1 -1 -1 -0 1 2 1 1 1 1 1 1 2 2 2 2 2 3 3 4 4 4 4 4 4 4 4 4 4 4 3 3 3 3 3 3 3 2 2 2 2 2 2
-1 -2 -1 -1 -0 1 1 1 1 1 1 1 1 1 1 2 1 1 2 3 3 4 4 4 4 4 4 4 4 4 3 3 3 3 3 2 2 2 2 2 2 2 2 2
-1 -1 -1 -1 -1 0 0 0 2 1 1 1 1 1 1 1 1 1 2 2 3 3 3 3 3 3 3 3 3 3 3 3 2 2 2 2 2 2 2 2 1 1 1 1
-2 -2 -2 -1 -1 -0 -1 -0 -0 -0 0 1 1 1 1 1 1 1 1 2 2 2 2 3 3 3 2 3 3 3 3 2 2 2 1 1 1 1 1 1 1 1 1 1
-2 -2 -2 -2 -1 -1 -2 -1 -1 -0 -0 0 1 1 1 0 0 0 0 1 1 1 2 2 2 2 2 2 2 2 2 1 1 1 1 1 0 0 1 1 0 0 0 0
-3 -3 -3 -3 -2 -2 -2 -2 -1 -1 -1 -0 0 0 0 0 -0 -0 -0 0 0 1 1 1 1 1 1 1 1 1 1 1 1 1 0 0 0 -0 -0 -0 -0 -0 -0 -1
-4 -4 -3 -3 -3 -3 -3 -2 -2 -1 -1 -1 -1 -1 -0 -0 -1 -1 -1 -0 -0 -0 -0 -0 0 0 -0 0 0 0 0 0 0 0 -0 -0 -1 -1 -1 -1 -1 -1 -1 -2
-5 -4 -4 -3 -3 -4 -3 -3 -2 -2 -2 -2 -2 -2 -1 -1 -1 -1 -1 -1 -1 -1 -1 -1 -1 -1 -1 -1 -1 -1 -1 -0 -0 -1 -1 -1 -1 -1 -2 -2 -2 -2 -2 -2

GEFSCGP_850_meantemp_228.txt.gz
Temperature
7 6 6 6 7 8 7 7 8 8 9 8 8 8 9 9 9 8 9 10 11 12 13 12 12 12 12 12 12 12 11 11 11 11 11 11 11 11 10 10 10 10 10 10
5 5 6 7 7 8 7 7 7 8 8 8 8 8 8 8 8 9 9 10 11 12 12 12 12 12 12 12 12 12 11 11 11 11 11 11 11 10 10 10 10 10 9 9
5 6 7 7 7 7 7 7 7 7 8 8 8 8 8 8 8 9 10 11 11 12 12 12 12 12 12 12 12 12 11 11 11 11 10 10 10 10 10 10 10 9 9 9
5 6 6 6 6 7 6 7 7 7 7 6 7 6 7 7 7 7 8 9 10 11 12 12 12 12 12 12 12 12 11 11 11 10 10 10 10 10 10 10 9 9 9 9
4 5 6 6 6 7 6 7 7 7 6 5 6 6 6 6 7 7 7 9 10 11 11 12 12 12 12 12 12 11 11 11 11 10 10 10 10 10 9 9 9 9 8 8
4 5 5 6 6 7 6 6 6 5 5 5 5 5 6 6 7 8 7 8 9 10 11 11 12 12 12 12 11 11 11 11 10 10 10 10 9 9 9 9 9 8 8 8
4 4 5 6 5 6 6 5 5 5 4 4 5 5 6 6 7 7 7 7 9 9 10 11 11 11 11 11 11 11 10 10 10 10 9 9 9 9 9 9 8 8 8 8
3 3 4 5 5 5 5 5 5 4 4 4 4 4 5 6 6 6 7 7 8 8 9 10 10 10 11 11 11 10 10 10 10 9 9 9 9 9 8 8 8 8 7 7
2 3 4 4 5 5 5 5 5 4 4 4 4 4 4 6 5 5 5 6 7 8 8 9 10 10 10 10 10 10 10 10 9 9 9 9 8 8 8 8 7 7 7 7
2 2 2 4 5 4 5 4 4 4 4 5 5 5 5 6 5 5 4 4 6 7 7 8 9 9 9 10 10 10 9 9 9 9 8 8 8 8 7 7 7 7 6 6
1 1 1 3 3 3 3 4 4 4 4 4 5 5 5 5 5 4 3 4 5 6 7 7 8 8 9 9 9 9 9 8 8 8 8 8 7 7 7 7 6 6 6 6
0 -0 0 1 2 2 3 3 3 4 3 3 3 4 5 4 3 3 3 4 4 5 6 6 7 7 8 8 8 8 8 8 8 8 7 7 7 7 6 6 6 6 5 5
0 -0 0 1 1 1 1 2 2 2 2 2 3 5 4 3 3 3 3 3 4 5 5 6 6 7 7 7 7 7 7 7 7 7 7 7 7 6 6 6 5 5 5 5
1 -1 0 1 1 0 0 1 1 2 2 2 2 3 4 3 2 2 2 3 3 4 5 5 6 6 6 7 7 7 7 7 6 6 6 6 6 6 5 5 5 5 4 4
-0 -1 -1 -0 1 0 1 1 1 2 2 2 3 3 3 3 2 2 2 2 3 3 4 5 5 6 6 6 6 6 6 6 6 6 6 6 5 5 5 5 4 4 4 4
-2 -2 -1 -0 1 1 1 1 1 1 2 2 2 2 2 2 2 1 1 2 2 3 3 4 5 5 5 6 6 5 5 5 5 5 5 5 5 5 4 4 4 4 4 3
-2 -2 -1 -1 0 1 0 0 0 0 0 1 2 2 1 1 1 1 1 1 2 2 3 4 4 5 5 5 5 5 5 5 5 5 5 4 4 4 4 4 3 3 3 3
-2 -2 -2 -1 -0 -0 1 0 -0 0 0 0 1 1 1 1 1 1 2 2 2 2 3 3 4 4 5 5 5 5 4 5 4 4 4 4 4 4 3 3 3 3 3 3
-2 -2 -2 -2 -1 -0 0 -0 -1 -1 -0 -1 -0 0 0 0 1 1 1 2 2 2 3 3 4 4 4 4 4 4 4 4 4 4 3 3 3 3 3 3 3 3 2 2
-3 -3 -3 -3 -1 -1 -0 -1 -1 -0 -0 -1 -1 -1 -1 -0 0 0 1 1 2 2 3 3 3 3 3 3 3 4 3 3 3 3 3 3 3 3 3 2 2 2 2 2
-3 -3 -3 -3 -2 -2 -2 -2 -1 -0 -0 -1 -2 -1 -1 -1 -0 -0 0 1 1 2 2 2 3 3 3 3 3 3 3 3 3 2 2 2 2 2 2 2 2 2 1 1
-4 -4 -4 -4 -3 -2 -2 -2 -2 -2 -2 -2 -2 -1 -1 -1 -1 -1 -0 0 0 1 1 2 2 2 2 2 2 2 2 2 2 2 2 2 2 2 1 1 1 1 1 1
-4 -4 -4 -4 -3 -3 -3 -3 -3 -3 -3 -2 -2 -2 -1 -2 -2 -1 -1 -1 -0 0 1 1 1 1 1 1 1 2 1 1 1 1 1 1 1 1 1 1 1 1 0 0
-5 -5 -5 -4 -4 -4 -3 -3 -3 -3 -3 -2 -2 -2 -2 -2 -2 -2 -2 -1 -1 -0 -0 0 0 0 0 0 1 1 1 1 1 1 1 1 1 0 0 0 0 -0 -0 -0
-5 -6 -5 -5 -5 -4 -4 -4 -3 -3 -3 -3 -3 -2 -2 -2 -2 -2 -2 -2 -1 -1 -1 -1 -0 -0 -0 -0 -0 -0 0 0 0 0 0 -0 -0 -0 -0 -1 -1 -1 -1 -1
-6 -6 -6 -5 -5 -5 -5 -4 -4 -4 -3 -3 -3 -3 -3 -3 -3 -2 -2 -2 -2 -2 -1 -1 -1 -1 -1 -1 -1 -1 -1 -1 -0 -0 -1 -1 -1 -1 -1 -1 -1 -2 -2 -2

GEFSCGP_850_meantemp_234.txt.gz
Temperature
7 8 9 9 10 11 11 12 12 12 12 12 12 13 13 13 12 13 13 12 12 12 12 12 12 12 12 12 12 12 11 11 11 11 11 11 11 11 11 11 11 11 11 10
7 8 9 10 10 10 10 10 11 11 11 11 12 12 13 13 12 12 12 12 12 12 11 11 12 12 12 12 12 12 11 11 11 11 11 11 11 11 10 10 10 10 10 10
7 8 9 9 9 9 9 10 10 10 10 10 11 12 12 12 12 11 11 11 11 11 11 11 11 12 12 12 12 12 11 11 11 11 11 11 10 10 10 10 10 10 10 9
7 8 8 8 8 9 9 10 10 10 10 10 10 11 13 12 12 12 11 11 10 10 10 10 11 11 12 12 12 11 11 11 11 11 11 11 10 10 10 10 10 10 9 9
6 7 7 7 8 8 8 9 9 9 10 9 10 9 12 11 12 12 12 11 10 9 10 10 11 11 11 11 11 11 11 11 11 11 11 10 10 10 10 10 9 9 9 9
6 7 7 8 8 8 8 8 8 8 9 8 10 10 12 12 12 12 11 10 9 9 9 9 10 10 11 10 11 11 10 10 10 10 10 10 10 10 9 9 9 9 9 9
5 6 6 7 7 7 7 7 7 7 7 9 10 10 12 11 10 10 10 9 8 8 8 8 9 10 10 10 10 10 10 10 10 10 10 10 10 9 9 9 9 9 9 8
5 5 6 6 7 7 7 8 8 8 9 10 9 10 11 10 9 8 8 8 7 7 7 7 8 9 9 10 10 10 10 10 10 10 9 9 9 9 9 9 8 8 8 8
4 5 5 5 6 7 7 7 8 7 8 8 9 10 10 9 9 8 8 7 7 6 6 7 7 8 9 9 9 10 9 9 9 9 9 9 9 9 8 8 8 8 8 8
4 3 4 5 6 6 7 7 6 7 7 8 9 10 10 9 9 8 8 7 6 6 6 6 7 8 8 9 9 9 9 9 9 9 8 9 8 8 8 8 8 7 7 7
3 3 3 4 4 5 5 5 6 7 7 8 9 10 9 8 7 7 7 6 5 5 5 5 6 7 7 8 8 8 8 8 8 8 8 8 8 8 7 7 7 7 7 7
3 3 3 3 3 3 5 5 6 6 6 7 8 9 7 6 6 5 5 4 4 4 4 5 5 6 6 7 7 7 7 7 7 7 7 7 7 7 7 7 7 7 6 6
2 2 3 3 3 3 3 3 4 5 5 6 8 8 6 6 5 4 4 3 3 3 3 4 5 5 6 6 6 6 6 6 7 7 7 7 7 7 7 7 7 6 6 6
2 1 2 3 3 3 2 3 3 4 5 6 7 7 6 5 5 4 3 3 3 2 3 3 4 4 5 5 6 6 6 6 6 6 6 6 6 6 6 6 6 6 6 5
1 1 1 2 2 3 3 3 3 3 5 5 6 6 6 5 4 3 2 2 2 2 2 2 3 4 4 4 5 5 6 6 6 6 6 6 6 6 6 6 5 5 5 5
-0 1 1 1 2 2 2 3 3 3 3 4 4 4 4 3 3 2 2 2 2 1 1 2 3 3 4 4 5 5 5 5 5 5 5 5 5 5 5 5 5 5 5 4
-0 -0 1 2 2 2 2 2 2 2 3 3 4 4 3 2 2 2 1 1 1 1 1 2 2 3 4 4 4 4 4 5 5 5 5 5 5 4 4 4 4 4 4 4
-1 -1 0 1 2 2 2 1 1 1 1 2 2 2 2 2 1 0 0 1 1 1 1 2 3 3 3 3 4 4 4 4 4 4 4 4 4 4 4 4 4 4 3 3
-1 -0 0 1 2 2 2 1 0 0 1 0 1 1 1 0 1 1 -0 0 0 0 1 2 2 2 3 3 3 3 3 3 3 3 3 3 3 3 3 3 3 3 3 3
-1 -1 -0 0 1 1 1 0 -1 0 1 0 -1 -0 -0 -0 2 2 -0 -0 -0 0 1 1 2 2 2 2 2 3 3 3 3 3 3 3 3 3 3 3 3 2 2 2
-1 -1 -1 -0 1 1 -0 -1 -0 1 1 -1 -2 -1 -1 -0 0 -1 -1 -1 -1 -0 0 1 1 1 1 2 2 2 2 2 2 2 2 2 2 2 2 2 2 2 2 2
-1 -1 -1 -1 0 0 -1 -1 -1 -1 -2 -2 -2 -2 -2 -2 -2 -2 -2 -2 -2 -1 -1 -0 0 0 1 1 1 2 2 2 2 2 2 2 2 2 2 2 2 2 1 1
-2 -2 -1 -1 -0 -1 -3 -3 -3 -3 -3 -3 -3 -3 -3 -3 -3 -3 -3 -3 -2 -2 -1 -1 -0 -0 -0 0 0 1 1 1 1 1 1 1 1 1 1 1 1 1 1 1
-3 -4 -3 -3 -2 -2 -3 -4 -4 -4 -4 -4 -4 -3 -3 -3 -4 -3 -3 -3 -3 -2 -2 -2 -1 -1 -1 -0 -0 0 0 0 0 0 0 0 0 0 0 0 0 0 0 0
-3 -4 -3 -3 -2 -3 -3 -4 -4 -4 -4 -4 -4 -4 -4 -4 -4 -4 -4 -3 -3 -3 -3 -2 -2 -1 -1 -1 -1 -1 -1 -0 -0 -0 -0 -0 -0 -0 -0 -0 -0 -0 -0 -1
-4 -4 -3 -2 -3 -4 -4 -5 -5 -5 -5 -4 -4 -4 -4 -4 -4 -4 -4 -4 -4 -3 -3 -3 -2 -2 -2 -1 -1 -1 -1 -1 -1 -1 -1 -1 -1 -1 -1 -1 -1 -1 -1 -1